Location: Newark
(43.0000°N, 1.6781°W)
Time: 10:16:28
(UTC+00:00)

Vanguard 1 Rocket - Pass Details

Date: 16 October 2022
Orbit: 650 x 4225 km, 34.3° (Epoch: 04 December)

Event Time Altitude Azimuth Distance (km) Brightness Sun altitude
Rises 17:24:49 0° 250° (WSW) 8,168 14.7 -1.2°
Reaches altitude 10° 17:30:16 10° 248° (WSW) 7,322 13.8 -2.2°
Maximum altitude 17:56:08 66° 174° (S) 4,043 10.7 -6.9°
Enters shadow 18:14:05 10° 97° (E) 5,393 10.7 -10.2°
